Location: Stoke Bliss
(52.2667°N, 2.5167°W)
Time: 16:47:59
(UTC+00:00)

Cosmos 2360 Rocket - Visible Passes

Search period start: 24 June 2021 00:00
Search period end: 04 July 2021 00:00
Orbit: 835 x 844 km, 71.0° (Epoch: 24 June)

Date Brightness Start Highest point End Pass type
(mag) Time Alt. Az. Time Alt. Az. Time Alt. Az.
24 Jun 5.6 01:14:48 10° NNW 01:16:30 11° N 01:18:11 10° NNE visible
24 Jun 3.4 21:23:12 10° SW 21:28:38 48° NW 21:34:07 10° NNE visible
24 Jun 5.2 23:10:29 10° WNW 23:14:05 17° NNW 23:17:41 10° NNE visible
25 Jun 5.7 00:58:59 10° NNW 01:00:39 11° N 01:02:19 10° NNE visible
25 Jun 5.3 02:43:16 10° NNW 02:47:08 18° NNE 02:51:00 10° ENE visible
25 Jun 5.2 22:54:34 10° WNW 22:58:15 17° NNW 23:01:56 10° NNE visible
26 Jun 5.7 00:43:08 10° NNW 00:44:48 11° N 00:46:27 10° NNE visible
26 Jun 5.3 02:27:32 10° NNW 02:31:19 18° NNE 02:35:05 10° ENE visible
26 Jun 5.3 22:38:39 10° WNW 22:42:25 18° NNW 22:46:12 10° NNE visible
27 Jun 5.8 00:27:17 10° NNW 00:28:56 11° N 00:30:36 10° NNE visible
27 Jun 5.4 02:11:47 10° NNW 02:15:29 17° NNE 02:19:10 10° ENE visible
27 Jun 5.3 22:22:45 10° WNW 22:26:35 18° NNW 22:30:27 10° NNE visible
28 Jun 5.8 00:11:26 10° NNW 00:13:05 11° N 00:14:45 10° NNE visible
28 Jun 5.4 01:56:02 10° NNW 01:59:39 17° NNE 02:03:15 10° ENE visible
28 Jun 5.3 22:06:50 10° WNW 22:10:46 19° NNW 22:14:42 10° NNE visible
28 Jun 5.8 23:55:33 10° NNW 23:57:14 11° N 23:58:55 10° NNE visible
29 Jun 5.4 01:40:17 10° NNW 01:43:49 17° NNE 01:47:20 10° ENE visible
29 Jun 5.3 21:50:56 10° WNW 21:54:57 19° NNW 21:58:57 10° NNE visible
29 Jun 5.8 23:39:41 10° NNW 23:41:23 11° N 23:43:05 10° NNE visible
30 Jun 5.3 01:24:33 10° NNW 01:27:59 16° NNE 01:31:24 10° ENE visible
30 Jun 5.2 21:35:02 10° WNW 21:39:06 20° NNW 21:43:12 10° NNE visible
30 Jun 5.7 23:23:48 10° NNW 23:25:32 11° N 23:27:15 10° NNE visible
01 Jul 5.3 01:08:47 10° NNW 01:12:09 16° NNE 01:15:29 10° ENE visible
01 Jul 3.7 02:52:22 10° NNW 02:57:43 42° NE 03:03:03 10° ESE visible
01 Jul 5.2 21:19:07 10° W 21:23:17 21° NNW 21:27:28 10° NNE visible
01 Jul 5.6 23:07:54 10° NNW 23:09:41 11° N 23:11:27 10° NNE visible
02 Jul 5.2 00:53:03 10° NNW 00:56:18 15° NNE 00:59:33 10° ENE visible
02 Jul 3.7 02:36:36 10° NNW 02:41:56 41° NE 02:47:13 10° ESE visible
02 Jul 5.6 22:52:00 10° NNW 22:53:49 11° N 22:55:39 10° NNE visible
03 Jul 5.2 00:37:18 10° NNW 00:40:28 15° NNE 00:43:38 10° NE visible
03 Jul 3.8 02:20:51 10° NNW 02:26:08 39° NE 02:31:23 10° ESE visible
03 Jul 5.5 22:36:05 10° NNW 22:37:58 12° N 22:39:50 10° NNE visible
